Weather History for Huntington, WV

Change the Weather History Date:

Saturday, February 2, 2013

  Actual Average Record
Temperature  
Mean Temperature 20 °F 35 °F  
Max Temperature 30 °F 44 °F 68 °F (1903)
Min Temperature 10 °F 26 °F -2 °F (1905)
Degree Days  
Heating Degree Days 45 30  
Month to date heating degree days 88 60  
Since 1 July heating degree days 2714 2784  
Cooling Degree Days 0 0  
Month to date cooling degree days 0 0  
Year to date cooling degree days 0 0  
Moisture  
Dew Point 19 °F    
Average Humidity 75    
Maximum Humidity 96    
Minimum Humidity 54    
Precipitation  
Precipitation 0.14 in 0.11 in 1.23 in (1956)
Month to date precipitation 0.23 0.22  
Year to date precipitation 4.15 3.19  
Snow  
Snow 2.10 in - - ()
Month to date snowfall 4.9  
Since 1 September snowfall 11.3  
Snow Depth 1.00 in    
Sea Level Pressure  
Sea Level Pressure 30.15 in    
Wind  
Wind Speed 4 mph (SSW)    
Max Wind Speed 13 mph    
Max Gust Speed 16 mph    
Visibility 4 miles    
Events Fog , Snow    
T = Trace of Precipitation, MM = Missing Value Source: NWS Daily Summary

Daily Weather History Graph

Daily Weather History Graph

Search for Another Location

Airport:

Trip Planner

Search our weather history database for the weather conditions in past years. The results will help you decide how hot, cold, wet, or windy it might be!

Date:

Astronomy

Feb. 02, 2013 Rise Set
Actual Time 7:34 AM EST 5:54 PM EST
Civil Twilight 7:06 AM EST 6:21 PM EST
Nautical Twilight 6:34 AM EST 6:53 PM EST
Astronomical Twilight 6:03 AM EST 7:24 PM EST
Moon No Moon Rise 10:50 AM EST (2/2)
Length of Visible Light 11h 15m
Length of Day
10h 19m
Waning Gibbous, 60% of the Moon is Illuminated
Feb 2
Waning Gibbous
Feb 3
Last Quarter
Feb 10
New
Feb 17
First Quarter
Feb 25
Full

Hourly Weather History & Observations

Time (EST) Temp. Windchill Dew Point Humidity Pressure Visibility Wind Dir Wind Speed Gust Speed Precip Events Conditions
12:51 AM 15.1 °F - 5.0 °F 64% 30.39 in 10.0 mi Calm Calm - N/A   Clear
1:51 AM 10.2 °F 3.8 °F 6.1 °F 83% 30.36 in 10.0 mi East 3.5 mph - N/A   Clear
2:51 AM 14.0 °F - 6.1 °F 71% 30.35 in 10.0 mi Calm Calm - N/A   Clear
3:51 AM 14.0 °F - 6.1 °F 71% 30.34 in 10.0 mi Calm Calm - N/A   Clear
4:51 AM 14.0 °F - 5.0 °F 67% 30.32 in 10.0 mi Calm Calm - N/A   Mostly Cloudy
5:51 AM 15.1 °F - 6.1 °F 68% 30.31 in 10.0 mi Calm Calm - N/A   Mostly Cloudy
6:51 AM 17.1 °F - 8.1 °F 68% 30.29 in 10.0 mi Calm Calm - N/A   Overcast
7:51 AM 12.2 °F - 8.1 °F 83% 30.31 in 10.0 mi Calm Calm - N/A   Overcast
8:51 AM 17.6 °F 12.3 °F 12.2 °F 79% 30.29 in 10.0 mi South 3.5 mph - N/A   Overcast
9:51 AM 17.6 °F 9.3 °F 12.2 °F 79% 30.28 in 10.0 mi SSW 5.8 mph - N/A   Overcast
10:10 AM 21.2 °F 14.9 °F 14.0 °F 74% 30.23 in 2.0 mi SSW 4.6 mph - 0.00 in Snow Light Snow
10:20 AM 21.2 °F 12.6 °F 14.0 °F 74% 30.23 in 1.0 mi SSW 6.9 mph - 0.00 in Snow Light Snow
10:51 AM 21.2 °F 12.6 °F 17.6 °F 86% 30.25 in 0.8 mi South 6.9 mph - 0.01 in Snow Light Snow
11:41 AM 23.0 °F 15.8 °F 19.4 °F 86% 30.17 in 0.5 mi South 5.8 mph - 0.02 in Fog , Snow Snow
11:51 AM 23.0 °F 17.0 °F 21.2 °F 93% 30.20 in 0.5 mi South 4.6 mph - 0.03 in Fog , Snow Snow
12:30 PM 23.0 °F 14.7 °F 21.2 °F 93% 30.12 in 0.8 mi South 6.9 mph - 0.02 in Snow Light Snow
12:51 PM 23.0 °F 13.9 °F 21.2 °F 93% 30.13 in 0.5 mi South 8.1 mph - 0.03 in Fog , Snow Snow
1:22 PM 24.8 °F 15.3 °F 21.2 °F 86% 30.07 in 1.0 mi South 9.2 mph - 0.01 in Snow Light Snow
1:51 PM 24.8 °F 14.0 °F 23.0 °F 93% 30.09 in 3.0 mi South 11.5 mph - 0.01 in Snow Light Snow
2:12 PM 26.6 °F 17.5 °F 23.0 °F 86% 30.04 in 2.0 mi South 9.2 mph - 0.00 in Snow Light Snow
2:16 PM 26.6 °F 18.2 °F 23.0 °F 86% 30.04 in 1.5 mi SSW 8.1 mph - 0.00 in Snow Light Snow
2:51 PM 26.6 °F 18.2 °F 23.0 °F 86% 30.06 in 1.5 mi South 8.1 mph - 0.00 in Snow Light Snow
3:51 PM 26.6 °F 18.2 °F 23.0 °F 86% 30.05 in 1.0 mi South 8.1 mph - 0.01 in Snow Light Snow
4:39 PM 28.4 °F 21.2 °F 24.8 °F 86% 30.00 in 0.8 mi South 6.9 mph - 0.01 in Snow Light Snow
4:51 PM 28.4 °F 21.2 °F 24.1 °F 84% 30.04 in 0.8 mi SSW 6.9 mph - 0.02 in Snow Light Snow
5:51 PM 28.4 °F 22.2 °F 26.6 °F 93% 30.03 in 0.8 mi SSW 5.8 mph - 0.01 in Snow Light Snow
5:56 PM 44.6 °F 41.4 °F 26.6 °F 49% 30.00 in 1.8 mi South 5.8 mph - 0.00 in   Unknown
6:46 PM 28.4 °F 22.2 °F 26.6 °F 93% 30.01 in 1.5 mi South 5.8 mph - 0.01 in Snow Light Snow
6:51 PM 28.4 °F 22.2 °F 26.1 °F 91% 30.04 in 1.5 mi SSW 5.8 mph - 0.01 in Snow Light Snow
7:51 PM 28.4 °F 24.6 °F 26.6 °F 93% 30.01 in 1.5 mi SSW 3.5 mph - N/A   Overcast
8:51 PM 30.2 °F 25.4 °F 28.0 °F 92% 30.05 in 1.5 mi SW 4.6 mph - N/A   Overcast
8:58 PM 30.2 °F 26.7 °F 28.4 °F 93% 30.02 in 1.5 mi SW 3.5 mph - N/A   Haze
9:51 PM 30.2 °F 26.7 °F 28.0 °F 92% 30.04 in 1.5 mi SSW 3.5 mph - N/A   Overcast
9:58 PM 30.2 °F 25.4 °F 28.4 °F 93% 30.01 in 5.0 mi SSW 4.6 mph - N/A   Haze
10:33 PM 30.2 °F 25.4 °F 28.4 °F 93% 30.02 in 3.0 mi SW 4.6 mph - N/A   Overcast
10:51 PM 30.2 °F 25.4 °F 28.0 °F 92% 30.05 in 3.0 mi SW 4.6 mph - N/A   Overcast
11:51 PM 30.2 °F 22.6 °F 30.2 °F 100% 30.04 in 6.0 mi West 8.1 mph - N/A   Overcast